EHI
0 1 2 2 2 1 0 0 0 0 0 0 0 0 0 0 0 0 0 0 0 0 0 0 0 0 0 0 0 0 0 0 0 0 0 0 0 0
0 0 1 1 1 0 0 0 0 0 0 0 0 0 0 0 0 0 0 0 0 0 0 0 0 0 0 0 0 0 0 0 0 0 0 0 0 0
0 0 0 0 0 0 0 0 0 0 0 0 0 0 0 0 0 0 0 0 0 0 0 0 0 0 0 0 0 0 0 0 0 0 0 0 0 0
0 0 0 0 0 0 0 1 1 2 1 0 0 0 0 0 0 0 0 0 0 0 0 0 0 0 0 0 0 0 0 0 0 0 0 0 0 0
0 0 0 0 0 0 1 2 2 2 1 0 0 0 0 0 0 0 0 0 0 0 0 0 0 0 0 0 0 0 0 0 0 0 0 0 0 0
0 0 0 1 0 1 2 3 3 2 1 1 1 1 0 0 0 0 0 0 0 0 0 0 0 0 0 0 0 0 0 0 0 0 0 0 0 0
0 0 0 0 0 1 2 3 3 3 3 3 2 2 1 0 0 0 0 0 0 0 0 0 0 0 0 0 0 0 0 0 0 0 0 0 0 0
0 0 0 0 0 1 1 1 1 2 3 3 3 3 2 1 0 0 0 0 0 0 0 0 0 0 0 0 0 0 0 0 0 0 0 0 0 0
1 1 2 1 2 2 1 1 1 1 2 2 3 3 2 1 0 0 0 0 0 0 0 0 0 0 0 0 0 0 0 0 0 0 0 0 0 0
2 2 2 2 2 2 2 2 1 0 0 1 2 2 1 0 0 0 0 0 0 1 1 0 0 0 0 0 0 0 0 0 0 0 0 0 0 0
1 1 1 1 1 1 1 1 1 0 0 0 1 1 0 0 0 0 0 0 1 2 1 0 0 0 0 0 0 0 0 0 0 0 0 0 0 0
0 0 0 0 0 0 0 0 0 0 0 0 0 0 0 0 0 0 0 1 2 2 1 0 0 0 0 0 0 0 0 0 0 0 0 0 0 0
0 0 0 0 0 0 0 0 0 0 0 0 0 0 0 0 0 0 0 1 2 2 1 0 0 0 0 0 0 0 0 0 0 0 0 0 0 0
0 0 0 0 0 0 0 0 0 0 0 0 0 0 0 0 0 0 0 0 1 1 0 0 0 0 0 0 0 0 0 0 0 0 0 0 0 0
0 0 0 0 0 0 0 0 0 0 0 0 0 0 0 0 0 0 0 0 0 0 0 0 0 0 0 0 0 0 0 0 0 0 0 0 0 0
0 0 0 0 0 0 0 0 0 0 0 0 0 0 0 0 0 0 0 0 0 0 0 0 0 0 0 0 0 0 0 0 0 0 0 0 0 0
0 0 0 0 0 0 0 0 0 0 0 0 0 0 0 0 0 0 0 0 0 0 0 0 0 0 0 0 0 0 0 0 0 0 0 0 0 0
0 0 0 0 0 0 0 0 0 0 0 0 0 0 0 0 0 0 0 0 0 0 0 0 0 0 0 0 0 0 0 0 0 0 0 0 0 0
0 0 0 0 0 0 0 0 0 0 0 0 0 0 0 0 0 0 0 0 0 0 0 0 0 0 0 0 0 0 0 0 0 0 0 0 0 0
0 0 0 0 0 0 0 0 0 0 0 0 0 0 0 0 0 0 0 0 0 0 0 0 0 0 0 0 0 0 0 0 0 0 0 0 0 0
0 0 0 0 0 0 0 0 0 0 0 0 0 0 0 0 0 0 0 0 0 0 0 0 0 0 0 0 0 0 0 0 0 0 0 0 0 0
0 0 0 0 0 0 0 0 0 0 0 0 0 0 0 0 0 0 0 0 0 0 0 0 0 0 0 0 0 0 0 0 0 0 0 0 0 0
0 0 0 0 0 0 0 0 0 0 0 0 0 0 0 0 0 0 0 0 0 0 0 0 0 0 0 0 0 0 0 0 0 0 0 0 0 0
Wind_Speed
2 2 2 2 2 3 3 3 3 2 2 2 1 1 1 2 2 2 2 2 4 5 5 5 5 6 6 6 5 5 5 5 5 5 6 6 6 7
1 1 2 2 2 2 2 2 3 3 3 1 2 1 1 1 1 2 2 2 3 4 4 5 5 5 5 5 4 4 4 4 5 5 5 5 5 5
1 1 2 1 1 1 1 2 2 3 3 2 1 1 0 0 0 1 1 2 1 2 3 4 4 5 5 4 4 4 4 4 4 4 4 4 4 4
1 1 1 1 1 1 1 2 2 2 3 2 1 0 1 1 0 0 0 1 1 1 1 1 2 3 3 3 3 3 3 3 3 3 3 4 4 5
1 1 1 0 1 1 1 1 1 2 2 2 1 0 1 0 0 1 0 0 0 1 1 1 1 1 1 1 2 2 3 3 3 3 3 4 4 5
0 0 1 1 1 2 1 1 1 1 2 2 1 1 1 0 0 0 0 1 0 1 2 2 2 2 2 1 1 1 2 3 3 3 3 3 3 4
1 1 1 1 1 0 0 1 1 1 1 1 1 1 0 0 0 0 0 0 0 1 1 1 1 1 1 1 1 1 1 0 0 1 1 2 3 3
1 1 1 1 2 2 2 2 3 2 2 1 1 1 1 1 1 0 0 0 0 1 1 1 1 1 1 1 2 3 2 2 1 1 1 1 2 2
1 1 1 2 2 1 3 4 3 3 2 2 1 2 2 1 1 1 0 0 0 1 0 1 1 1 2 2 3 2 3 3 3 2 1 1 1 0
1 1 1 2 2 2 2 3 3 4 3 1 1 0 0 0 1 1 1 1 1 1 1 1 1 2 2 3 4 4 4 4 4 4 4 4 3 2
3 3 3 2 4 4 3 3 4 4 6 7 7 7 7 7 4 2 2 2 1 1 2 1 1 1 1 2 4 6 6 5 5 4 5 5 4 3
3 4 6 5 6 5 4 4 4 3 4 5 7 7 7 7 7 3 1 1 1 1 2 1 1 1 1 1 2 3 4 5 5 5 5 5 5 3
3 3 4 7 7 6 5 4 4 4 4 5 5 6 6 5 5 5 4 2 1 1 1 1 0 1 0 1 2 2 3 3 3 3 4 5 4 3
3 3 4 7 8 8 6 7 7 6 5 5 5 5 4 4 4 4 5 4 3 1 1 1 1 0 1 1 1 2 2 3 3 3 3 4 4 3
4 7 7 8 8 7 9 9 7 5 4 5 4 3 3 3 3 3 4 5 6 6 5 3 2 1 1 0 1 1 2 2 3 3 3 3 3 3
5 7 9 10 8 8 7 6 5 5 4 4 3 3 3 4 4 4 3 4 4 5 6 7 5 3 2 1 1 1 2 2 3 3 3 2 2 2
4 5 5 5 5 5 5 5 5 4 4 3 3 3 4 4 4 4 4 4 4 4 5 5 5 4 3 2 2 2 2 3 3 3 3 3 3 3
6 5 4 4 4 4 4 4 4 4 3 3 3 3 3 3 4 4 4 4 4 4 4 3 4 3 3 4 3 2 3 3 4 3 3 3 4 4
6 4 3 3 3 3 3 3 3 3 3 3 3 3 3 3 3 4 3 3 3 3 3 3 3 3 3 3 4 4 3 3 3 3 3 3 4 4
4 3 3 2 2 2 2 2 2 3 3 3 3 3 3 3 3 3 3 3 3 3 4 4 4 3 2 2 2 3 5 4 3 4 4 3 4 4
3 2 2 2 2 2 2 2 2 3 3 3 3 3 3 3 3 3 3 3 3 3 3 4 4 5 2 1 2 3 4 5 4 3 4 4 4 4
2 2 2 2 2 2 2 2 2 2 3 2 2 2 2 2 2 3 2 2 2 2 3 3 4 3 3 3 3 4 5 5 5 4 4 4 4 5
2 2 2 2 2 2 2 2 2 2 2 1 1 2 2 2 2 2 2 2 2 3 3 3 4 3 3 3 4 4 6 6 5 5 5 6 6 7
Wind_Direction
216 208 215 230 216 216 209 197 194 226 267 273 277 287 251 243 229 199 208 208 204 205 211 217 220 214 210 212 218 224 227 233 239 238 239 240 243 247
216 212 229 237 221 209 207 209 202 201 233 248 243 283 278 259 194 203 205 193 205 211 212 213 211 212 211 207 212 219 224 228 233 237 238 240 242 246
235 224 252 243 225 214 195 197 198 193 219 251 244 284 264 277 307 205 209 203 212 213 210 205 204 208 211 208 210 216 225 229 230 232 234 235 237 243
245 235 271 266 242 236 203 210 207 199 201 230 269 316 265 271 246 159 132 136 149 81 144 175 198 209 208 207 211 222 230 233 235 237 238 241 244 249
236 229 270 228 248 239 220 225 215 192 188 199 252 269 253 331 34 53 81 45 81 76 110 107 108 133 151 183 206 220 227 229 233 240 244 248 252 256
290 269 273 225 239 235 227 229 200 179 173 187 228 261 253 225 128 124 43 54 31 19 40 62 56 79 90 102 116 169 230 236 237 246 260 266 265 262
16 1 7 63 68 134 152 165 154 151 159 175 213 240 262 155 212 209 197 1 42 30 44 35 36 32 37 53 82 110 135 166 308 293 276 277 276 274
28 7 17 28 46 70 75 91 117 142 163 177 198 211 240 232 226 195 151 112 348 10 65 30 51 35 15 23 49 73 75 61 47 36 0 320 294 280
24 18 22 29 39 49 64 72 69 72 131 174 175 221 237 244 208 219 182 148 314 339 46 33 26 32 12 27 46 59 66 58 50 43 35 37 40 336
30 43 57 26 40 69 81 72 60 49 48 81 108 334 343 335 187 182 162 111 78 48 40 32 8 6 20 25 33 38 44 47 46 44 44 44 43 35
38 40 50 48 41 64 84 79 63 46 52 63 61 58 54 49 54 97 105 112 62 42 32 49 25 7 14 19 29 34 36 37 40 46 48 45 39 37
48 42 49 52 49 63 81 82 73 48 54 59 53 45 47 47 47 58 89 116 91 56 26 36 48 36 27 19 17 19 29 34 36 36 33 32 28 31
69 53 46 51 55 58 70 76 80 84 78 73 64 52 46 43 40 39 40 57 74 47 32 67 97 44 73 352 353 6 18 19 27 35 32 25 17 20
85 67 60 61 63 62 64 61 66 74 77 72 63 50 42 36 32 37 44 48 46 31 358 47 93 111 113 68 358 354 4 12 18 16 14 17 14 7
85 82 73 67 68 64 57 60 65 69 72 70 61 45 31 27 31 34 38 46 48 42 37 34 50 67 94 100 11 357 352 357 7 5 360 357 351 346
82 78 73 68 66 61 57 57 57 60 67 68 57 43 38 40 38 32 37 40 48 37 29 32 34 48 66 62 64 15 354 339 342 347 344 338 338 336
95 80 70 65 63 57 55 55 52 53 56 55 59 57 50 48 40 29 34 41 49 37 24 19 23 33 38 44 46 23 7 356 348 347 341 337 334 332
92 84 78 77 75 67 62 57 50 47 47 56 61 59 55 50 44 39 43 48 49 38 28 15 14 26 37 37 23 9 9 356 346 342 336 334 331 332
87 87 86 83 78 70 63 58 47 38 44 53 55 50 52 51 51 46 45 43 38 28 18 10 13 28 28 15 4 5 354 349 346 345 342 332 320 321
80 87 85 76 73 68 59 51 47 48 52 52 50 48 49 52 51 46 43 36 29 22 20 18 15 9 358 336 332 337 347 348 346 340 335 328 319 309
86 81 75 74 70 67 61 55 54 56 52 52 51 49 48 51 47 39 35 30 30 26 20 9 349 337 341 11 360 353 350 349 339 328 326 324 327 328
95 91 80 72 70 70 67 64 61 57 51 49 46 47 48 50 46 33 24 22 20 17 5 357 356 5 21 17 1 349 346 347 347 336 321 316 318 320
96 90 81 71 66 66 68 70 67 55 45 41 41 36 42 41 30 25 16 14 13 13 8 5 9 12 7 358 353 349 347 346 344 344 345 340 316 303